Location: Bukit Nyuki
(2.5885°N, 113.7476°E)
Time: 18:43:02
(UTC+00:00)

Cosmos 1850 Rocket - Pass Details

Date: 18 May 2021
Orbit: 754 x 786 km, 74.0° (Epoch: 24 June)

Event Time Altitude Azimuth Distance (km) Brightness Sun altitude
Rises 20:20:41 0° 344° (NNW) 3,255 7.3 -27.2°
Reaches altitude 10° 20:23:04 10° 342° (NNW) 2,326 6.5 -26.7°
Enters shadow 20:27:38 63° 310° (NW) 863 4.0 -25.7°
